Copper Mountain, CO

4:38 PM MST on December 17, 2017 (GMT -0700)
Copper Mountain

Weather History for KCCU - January, 2014

Change the Weather History Date:

Saturday, January 11, 2014

  Actual Average Record
Temperature  
Mean Temperature 22 °F -  
Max Temperature 30 °F - 30 °F (2004)
Min Temperature 15 °F - 0 °F (2012)
Degree Days  
Heating Degree Days 42    
Month to date heating degree days  
Cooling Degree Days 0    
Month to date cooling degree days  
Moisture  
Dew Point 15 °F    
Average Humidity 70    
Maximum Humidity 80    
Minimum Humidity 47    
Precipitation  
Precipitation 0.05 in - 0.05 in (2014)
Sea Level Pressure  
Sea Level Pressure 30.07 in    
Wind  
Wind Speed 29 mph (WSW)    
Max Wind Speed 45 mph    
Max Gust Speed 61 mph    
Visibility 5 miles    
Events Snow    
T = Trace of Precipitation, MM = Missing Value Source: NWS Daily Summary

Daily Weather History Graph

Daily Weather History Graph

Search for Another Location

Airport or City:

Trip Planner

Search our weather history database for the weather conditions in past years. The results will help you decide how hot, cold, wet, or windy it might be!

Date:

Astronomy

Jan. 11, 2014 Rise Set
Actual Time 7:24 AM MST 5:01 PM MST
Civil Twilight 6:54 AM MST 5:30 PM MST
Nautical Twilight 6:21 AM MST 6:04 PM MST
Astronomical Twilight 5:49 AM MST 6:36 PM MST
Moon 1:47 PM MST (1/11) 3:31 AM MST (1/11)
Length of Visible Light 10h 36m
Length of Day
9h 36m
Waxing Gibbous, 83% of the Moon is Illuminated
Jan 11
Waxing Gibbous
Jan 15
Full
Jan 23
Last Quarter
Jan 30
New
Feb 6
First Quarter

Hourly Weather History & Observations

Time (MST) Temp. Windchill Dew Point Humidity Pressure Visibility Wind Dir Wind Speed Gust Speed Precip Events Conditions
12:16 AM 15.8 °F -7.0 °F 10.4 °F 79% 29.96 in 0.2 mi West 41.4 mph 54.1 mph N/A Snow Heavy Snow
12:36 AM 15.8 °F -6.6 °F 10.4 °F 79% 29.98 in 0.2 mi West 39.1 mph 57.5 mph N/A Snow Heavy Snow
12:56 AM 17.6 °F -5.2 °F 10.4 °F 73% 29.96 in 0.2 mi West 44.9 mph 61.0 mph N/A Snow Heavy Snow
1:16 AM 17.6 °F -5.0 °F 10.4 °F 73% 29.97 in 0.2 mi West 43.7 mph 55.2 mph N/A Snow Snow
1:36 AM 17.6 °F -4.7 °F 10.4 °F 73% 30.01 in 0.2 mi West 42.6 mph 54.1 mph N/A Snow Heavy Snow
1:56 AM 17.6 °F -4.5 °F 12.2 °F 79% 30.02 in 0.2 mi West 41.4 mph 51.8 mph N/A Snow Snow
2:16 AM 17.6 °F -5.2 °F 12.2 °F 79% 30.03 in 0.2 mi West 44.9 mph 54.1 mph N/A Snow Snow
2:36 AM 17.6 °F -4.7 °F 12.2 °F 79% 30.03 in 0.2 mi West 42.6 mph 52.9 mph N/A Snow Snow
2:56 AM 17.6 °F -4.3 °F 12.2 °F 79% 30.04 in 0.5 mi West 40.3 mph 55.2 mph N/A Snow Snow
3:16 AM 19.4 °F -1.1 °F 14.0 °F 80% 30.05 in 0.5 mi West 36.8 mph 50.6 mph N/A Snow Snow
3:36 AM 19.4 °F -2.2 °F 14.0 °F 80% 30.04 in 0.5 mi West 42.6 mph 58.7 mph N/A Snow Snow
3:56 AM 19.4 °F 0.5 °F 14.0 °F 80% 30.08 in 0.5 mi West 29.9 mph 44.9 mph N/A Snow Snow
4:16 AM 19.4 °F 0.5 °F 14.0 °F 80% 30.10 in 0.2 mi West 29.9 mph 39.1 mph N/A Snow Snow
4:36 AM 19.4 °F 1.8 °F 14.0 °F 80% 30.12 in - West 25.3 mph 34.5 mph N/A   Overcast
4:56 AM 19.4 °F 1.8 °F 14.0 °F 80% 30.12 in - West 25.3 mph - N/A   Overcast
5:16 AM 19.4 °F - 14.0 °F 80% 30.14 in - North - - N/A   Overcast
5:36 AM 19.4 °F -2.2 °F 14.0 °F 80% 30.10 in - West 42.6 mph 49.5 mph N/A   Overcast
5:56 AM 19.4 °F -1.1 °F 14.0 °F 80% 30.11 in 1.0 mi West 36.8 mph 50.6 mph N/A Snow Light Snow
6:16 AM 19.4 °F 3.2 °F 14.0 °F 80% 30.15 in 3.0 mi West 20.7 mph - N/A   Haze
6:36 AM 19.4 °F - 14.0 °F 80% 30.15 in 7.0 mi North - - N/A   Overcast
6:56 AM 19.4 °F - 14.0 °F 80% 30.15 in 4.0 mi North - - N/A   Haze
7:16 AM 19.4 °F 4.1 °F 14.0 °F 80% 30.16 in 1.2 mi West 18.4 mph 32.2 mph N/A   Haze
7:36 AM 19.4 °F 4.5 °F 14.0 °F 80% 30.17 in 0.2 mi West 17.3 mph - N/A   Haze
7:56 AM 19.4 °F 2.1 °F 14.0 °F 80% 30.15 in 0.8 mi West 24.2 mph 31.1 mph N/A   Haze
8:16 AM 19.4 °F 0.5 °F 14.0 °F 80% 30.15 in 7.0 mi West 29.9 mph 36.8 mph N/A   Mostly Cloudy
8:36 AM 19.4 °F -0.0 °F 14.0 °F 80% 30.14 in 1.2 mi West 32.2 mph 39.1 mph N/A   Haze
8:56 AM 21.2 °F 2.7 °F 14.0 °F 74% 30.15 in 2.0 mi West 31.1 mph - N/A   Haze
9:16 AM 19.4 °F - 14.0 °F 80% 30.17 in 0.5 mi North - - N/A   Haze
9:36 AM 21.2 °F - 14.0 °F 74% 30.18 in 0.2 mi North - - N/A   Haze
9:56 AM 23.0 °F 6.3 °F 17.6 °F 80% 30.17 in 1.8 mi West 26.5 mph 34.5 mph N/A   Haze
10:16 AM 23.0 °F 4.9 °F 17.6 °F 80% 30.16 in 1.2 mi West 32.2 mph 40.3 mph N/A   Haze
10:36 AM 23.0 °F 6.0 °F 17.6 °F 80% 30.17 in 7.0 mi West 27.6 mph 36.8 mph N/A   Clear
10:56 AM 23.0 °F 8.0 °F 17.6 °F 80% 30.18 in 10.0 mi West 20.7 mph 26.5 mph N/A   Clear
11:16 AM 24.8 °F 12.9 °F 19.4 °F 80% 30.18 in 10.0 mi West 13.8 mph 21.9 mph N/A   Clear
11:36 AM 24.8 °F 16.1 °F 19.4 °F 80% 30.17 in 5.0 mi SSW 8.1 mph - N/A   Haze
11:56 AM 24.8 °F 12.9 °F 19.4 °F 80% 30.16 in 10.0 mi South 13.8 mph 18.4 mph N/A   Scattered Clouds
12:16 PM 24.8 °F 13.4 °F 19.4 °F 80% 30.15 in 10.0 mi South 12.7 mph 17.3 mph N/A   Clear
12:36 PM 26.6 °F 16.8 °F 19.4 °F 74% 30.15 in 7.0 mi West 10.4 mph - N/A   Clear
12:56 PM 24.8 °F 17.9 °F 19.4 °F 80% 30.13 in 10.0 mi WSW 5.8 mph - N/A   Scattered Clouds
1:16 PM 26.6 °F 20.0 °F 21.2 °F 80% 30.12 in 10.0 mi West 5.8 mph - N/A   Clear
1:36 PM 26.6 °F 18.2 °F 21.2 °F 80% 30.11 in 10.0 mi SW 8.1 mph 18.4 mph N/A   Clear
1:56 PM 28.4 °F 21.2 °F 21.2 °F 74% 30.10 in 2.0 mi West 6.9 mph - N/A   Haze
2:16 PM 28.4 °F 20.4 °F 23.0 °F 80% 30.10 in 7.0 mi WSW 8.1 mph - 0.02 in   Scattered Clouds
2:36 PM 28.4 °F 21.2 °F 21.2 °F 74% 30.10 in 10.0 mi West 6.9 mph - 0.04 in   Clear
2:56 PM 30.2 °F 19.3 °F 21.2 °F 69% 30.08 in 10.0 mi West 15.0 mph 18.4 mph N/A   Clear
3:16 PM 28.4 °F 17.0 °F 21.2 °F 74% 30.08 in 10.0 mi West 15.0 mph - 0.01 in   Clear
3:36 PM 28.4 °F 16.2 °F 21.2 °F 74% 30.08 in 10.0 mi West 17.3 mph - 0.01 in   Clear
3:56 PM 28.4 °F 17.5 °F 21.2 °F 74% 30.07 in 10.0 mi West 13.8 mph - N/A   Clear
4:16 PM 26.6 °F 16.2 °F 21.2 °F 80% 30.07 in 10.0 mi West 11.5 mph - N/A   Clear
4:36 PM 28.4 °F 19.1 °F 17.6 °F 64% 30.06 in 10.0 mi SW 10.4 mph 27.6 mph N/A   Clear
4:56 PM 28.4 °F 16.6 °F 17.6 °F 64% 30.06 in 10.0 mi WSW 16.1 mph 25.3 mph N/A   Clear
5:16 PM 28.4 °F 16.6 °F 15.8 °F 59% 30.05 in 10.0 mi SW 16.1 mph 26.5 mph N/A   Clear
5:36 PM 28.4 °F 17.0 °F 14.0 °F 55% 30.03 in 10.0 mi WSW 15.0 mph 27.6 mph N/A   Clear
5:56 PM 28.4 °F 17.0 °F 15.8 °F 59% 30.03 in 10.0 mi WSW 15.0 mph 33.4 mph N/A   Clear
6:16 PM 28.4 °F 16.2 °F 15.8 °F 59% 30.02 in 10.0 mi SW 17.3 mph 21.9 mph N/A   Clear
6:36 PM 28.4 °F 15.1 °F 15.8 °F 59% 30.02 in 10.0 mi WSW 20.7 mph 26.5 mph N/A   Clear
6:56 PM 28.4 °F 17.0 °F 14.0 °F 55% 30.03 in 10.0 mi SSW 15.0 mph 34.5 mph N/A   Clear
7:16 PM 26.6 °F 18.2 °F 14.0 °F 59% 30.02 in 10.0 mi SSW 8.1 mph 18.4 mph N/A   Clear
7:36 PM 28.4 °F 13.0 °F 14.0 °F 55% 29.99 in 3.0 mi WSW 28.8 mph 36.8 mph N/A   Haze
7:56 PM 28.4 °F 11.6 °F 14.0 °F 55% 29.99 in 0.5 mi WSW 35.7 mph 44.9 mph N/A Snow Light Snow
8:16 PM 28.4 °F 12.3 °F 12.2 °F 51% 29.98 in 0.5 mi WSW 32.2 mph 50.6 mph N/A Snow Light Snow
8:36 PM 28.4 °F 12.3 °F 12.2 °F 51% 29.97 in 1.2 mi WSW 32.2 mph 42.6 mph N/A Snow Light Snow
8:56 PM 28.4 °F 12.7 °F 12.2 °F 51% 29.97 in 1.0 mi WSW 29.9 mph 40.3 mph N/A Snow Light Snow
9:16 PM 28.4 °F 12.0 °F 10.4 °F 47% 29.96 in 1.2 mi WSW 33.4 mph 43.7 mph N/A Snow Light Snow
9:36 PM 28.4 °F 13.5 °F 10.4 °F 47% 29.96 in 2.5 mi WSW 26.5 mph 36.8 mph N/A Snow Light Snow
9:56 PM 28.4 °F 14.7 °F 10.4 °F 47% 29.96 in 2.0 mi SW 21.9 mph 33.4 mph N/A   Haze
10:16 PM 28.4 °F 15.4 °F 12.2 °F 51% 29.96 in 2.0 mi SW 19.6 mph 36.8 mph N/A Snow Light Snow
10:36 PM 28.4 °F 15.8 °F 12.2 °F 51% 29.95 in 3.0 mi SSW 18.4 mph 28.8 mph N/A Snow Light Snow
10:56 PM 28.4 °F 15.4 °F 12.2 °F 51% 29.95 in 4.0 mi SW 19.6 mph 34.5 mph N/A Snow Light Snow
11:16 PM 28.4 °F 16.2 °F 10.4 °F 47% 29.94 in 5.0 mi SW 17.3 mph 33.4 mph N/A   Haze
11:36 PM 28.4 °F 14.7 °F 10.4 °F 47% 29.93 in 5.0 mi SW 21.9 mph 32.2 mph N/A   Haze
11:56 PM 28.4 °F 15.8 °F 10.4 °F 47% 29.91 in 2.0 mi SW 18.4 mph 39.1 mph N/A Snow Light Snow